This demonstration page uses our WeatherBlox Daily Observations layout. Learn more.

Left ArrowRight Arrow

Hourly Observations for April 28, 2015

Temp ( °F °C ) Dew Point ( °F °C ) Humidity (%) Winds ( mph kmh ) Pressure ( in mb ) Visibility ( mi km ) Precip ( " mm )
12:15 am 00:15 Clear 46 8 37 3 71 71 WNW 10 17 29.97 1015 10 16 0.00 0.00
12:35 am 00:35 Clear 46 8 37 3 71 71 WNW 7 11 29.97 1015 10 16 0.00 0.00
12:55 am 00:55 Clear 46 8 37 3 71 71 WNW 6 9 29.97 1015 10 16 0.00 0.00
1:15 am 01:15 Clear 45 7 36 2 71 71 WNW 8 13 29.97 1015 10 16 0.00 0.00
1:35 am 01:35 Partly Cloudy 45 7 37 3 76 76 WNW 9 15 29.97 1015 10 16 0.00 0.00
1:55 am 01:55 Cloudy 45 7 37 3 76 76 WNW 9 15 29.97 1015 10 16 0.00 0.00
2:15 am 02:15 Cloudy 46 8 37 3 71 71 NW 12 19 29.97 1015 10 16 0.00 0.00
2:35 am 02:35 Cloudy 46 8 36 2 66 66 NW 10 17 29.94 1014 10 16 0.00 0.00
2:55 am 02:55 Cloudy 46 8 36 2 66 66 NW 14 22 29.94 1014 10 16 0.00 0.00
3:15 am 03:15 Cloudy 46 8 37 3 71 71 WNW 10 17 29.94 1014 10 16 0.00 0.00
3:35 am 03:35 Cloudy 46 8 37 3 71 71 NW 8 13 29.94 1014 10 16 0.00 0.00
3:55 am 03:55 Mostly Cloudy 46 8 37 3 71 71 NW 10 17 29.94 1014 10 16 0.00 0.00
4:15 am 04:15 Partly Cloudy 45 7 37 3 76 76 NW 10 17 29.94 1014 10 16 0.00 0.00
4:35 am 04:35 Clear 45 7 37 3 76 76 NW 14 22 29.94 1014 10 16 0.00 0.00
4:55 am 04:55 Mostly Cloudy 45 7 37 3 76 76 NW 14 22 29.94 1014 10 16 0.00 0.00
5:15 am 05:15 Partly Cloudy 45 7 37 3 76 76 NW 12 19 29.94 1014 10 16 0.00 0.00
5:35 am 05:35 Clear 45 7 37 3 76 76 WNW 10 17 29.94 1014 10 16 0.00 0.00
5:55 am 05:55 Partly Cloudy 45 7 37 3 76 76 NW 10 17 29.94 1014 10 16 0.00 0.00
6:15 am 06:15 Partly Cloudy 45 7 37 3 76 76 WNW 8 13 29.97 1015 10 16 0.00 0.00
6:35 am 06:35 Sunny 45 7 37 3 76 76 NW 10 17 29.97 1015 10 16 0.00 0.00
6:55 am 06:55 Sunny 46 8 39 4 76 76 NW 10 17 29.97 1015 10 16 0.00 0.00
7:15 am 07:15 Sunny 46 8 39 4 76 76 NW 13 20 29.97 1015 10 16 0.00 0.00
7:35 am 07:35 Partly Cloudy 50 10 41 5 71 71 NW 14 22 29.94 1014 10 16 0.00 0.00
7:55 am 07:55 Partly Cloudy 50 10 41 5 71 71 NW 17 28 29.94 1014 10 16 0.00 0.00
8:15 am 08:15 Sunny 52 11 41 5 67 67 NW 16 26 29.97 1015 10 16 0.00 0.00
8:35 am 08:35 Sunny 52 11 41 5 67 67 NW 16 26 29.97 1015 10 16 0.00 0.00
8:55 am 08:55 Sunny 52 11 43 6 72 72 NW 12 19 29.97 1015 10 16 0.00 0.00
9:15 am 09:15 Sunny 54 12 43 6 67 67 NW 13 20 29.97 1015 10 16 0.00 0.00
9:35 am 09:35 Sunny 54 12 43 6 67 67 NW 14 22 29.97 1015 10 16 0.00 0.00
9:55 am 09:55 Sunny 55 13 43 6 63 63 NNW 12 19 29.97 1015 10 16 0.00 0.00
10:15 am 10:15 Sunny 57 14 43 6 59 59 NNW 15 24 29.97 1015 10 16 0.00 0.00
10:35 am 10:35 Sunny 59 15 43 6 55 55 NNW 15 24 29.97 1015 10 16 0.00 0.00
10:55 am 10:55 Sunny 59 15 43 6 55 55 NNW 12 19 29.94 1014 10 16 0.00 0.00
11:15 am 11:15 Sunny 61 16 43 6 52 52 NNW 13 20 29.94 1014 10 16 0.00 0.00
11:35 am 11:35 Sunny 61 16 45 7 55 55 NNW 10 17 29.94 1014 10 16 0.00 0.00
11:55 am 11:55 Sunny 61 16 45 7 55 55 N 13 20 29.94 1014 10 16 0.00 0.00
12:15 pm 12:15 Sunny 63 17 45 7 52 52 NNW 14 22 29.94 1014 10 16 0.00 0.00
12:35 pm 12:35 Sunny 63 17 45 7 52 52 NNW 8 13 29.94 1014 10 16 0.00 0.00
12:55 pm 12:55 Partly Cloudy 64 18 45 7 49 49 NNW 16 26 29.94 1014 10 16 0.00 0.00
1:15 pm 13:15 Partly Cloudy 64 18 45 7 49 49 NW 13 20 29.91 1013 10 16 0.00 0.00
1:35 pm 13:35 Partly Cloudy 66 19 45 7 46 46 N 8 13 29.91 1013 10 16 0.00 0.00
1:55 pm 13:55 Mostly Cloudy 66 19 43 6 43 43 N 14 22 29.91 1013 10 16 0.00 0.00
2:15 pm 14:15 Mostly Cloudy 68 20 43 6 40 40 N 15 24 29.91 1013 10 16 0.00 0.00
2:35 pm 14:35 Cloudy 66 19 45 7 46 46 NNW 13 20 29.91 1013 10 16 0.00 0.00
2:55 pm 14:55 Cloudy 68 20 43 6 40 40 NNW 9 15 29.91 1013 10 16 0.00 0.00
3:15 pm 15:15 Mostly Cloudy 66 19 43 6 43 43 NNW 15 24 29.91 1013 10 16 0.00 0.00
3:35 pm 15:35 Cloudy 68 20 43 6 40 40 NNW 12 19 29.88 1012 10 16 0.00 0.00
3:55 pm 15:55 Cloudy 66 19 43 6 43 43 WNW 10 17 29.88 1012 10 16 0.00 0.00
4:15 pm 16:15 Cloudy 68 20 43 6 40 40 NW 13 20 29.88 1012 10 16 0.00 0.00
4:35 pm 16:35 Mostly Cloudy 70 21 45 7 40 40 NNW 12 19 29.85 1011 10 16 0.00 0.00
4:55 pm 16:55 Partly Cloudy 70 21 43 6 38 38 NW 12 19 29.85 1011 10 16 0.00 0.00
5:15 pm 17:15 Partly Cloudy 68 20 41 5 38 38 N 10 17 29.85 1011 10 16 0.00 0.00
5:35 pm 17:35 Partly Cloudy 70 21 43 6 38 38 NW 13 20 29.85 1011 10 16 0.00 0.00
5:55 pm 17:55 Sunny with Nearby Thunderstorms 68 20 41 5 38 38 N 14 22 29.85 1011 10 16 0.00 0.00
6:15 pm 18:15 Sunny 70 21 43 6 38 38 NNW 10 17 29.85 1011 10 16 0.00 0.00
6:35 pm 18:35 Sunny 68 20 41 5 38 38 NNW 8 13 29.85 1011 10 16 0.00 0.00
6:55 pm 18:55 Sunny 68 20 43 6 40 40 NNW 10 17 29.83 1010 10 16 0.00 0.00
7:15 pm 19:15 Sunny 68 20 43 6 40 40 NNW 8 13 29.83 1010 10 16 0.00 0.00
7:35 pm 19:35 Sunny 64 18 43 6 46 46 NW 6 9 29.83 1010 10 16 0.00 0.00
7:55 pm 19:55 Sunny 63 17 43 6 49 49 W 3 6 29.85 1011 10 16 0.00 0.00
8:15 pm 20:15 Clear 59 15 43 6 55 55 W 5 7 29.85 1011 10 16 0.00 0.00
8:35 pm 20:35 Clear 59 15 43 6 55 55 W 3 6 29.85 1011 10 16 0.00 0.00
8:55 pm 20:55 Clear 61 16 41 5 48 48 W 5 7 29.85 1011 10 16 0.00 0.00
9:15 pm 21:15 Clear 57 14 43 6 59 59 W 6 9 29.85 1011 10 16 0.00 0.00
9:35 pm 21:35 Clear 55 13 43 6 63 63 WNW 6 9 29.85 1011 10 16 0.00 0.00
9:55 pm 21:55 Clear 55 13 41 5 59 59 W 7 11 29.88 1012 10 16 0.00 0.00
10:15 pm 22:15 Clear 57 14 41 5 55 55 W 6 9 29.88 1012 10 16 0.00 0.00
10:35 pm 22:35 Clear 57 14 41 5 55 55 WNW 7 11 29.88 1012 10 16 0.00 0.00
10:55 pm 22:55 Clear 59 15 41 5 51 51 W 6 9 29.88 1012 10 16 0.00 0.00
11:15 pm 23:15 Clear 55 13 41 5 59 59 W 5 7 29.88 1012 10 16 0.00 0.00
11:35 pm 23:35 Clear 57 14 41 5 55 55 WNW 6 9 29.88 1012 10 16 0.00 0.00
11:55 pm 23:55 Clear 55 13 41 5 59 59 WNW 7 11 29.85 1011 10 16 0.00 0.00

Powered by AerisWeather